Tracking 25534 objects as of 28-Jan-2022
HD Live streaming from Space Station
objects crossing your sky now

STARLINK-3324

Track STARLINK-3324 now!
10-day predictions
STARLINK-3324 is classified as:


NORAD ID: 50814
Int'l Code: 2022-001M
Perigee: 355.8 km
Apogee: 357.9 km
Inclination: 53.2 °
Period: 91.5 minutes
Semi major axis: 6727 km
RCS: Unknown
Launch date: January 6, 2022
Source: United States (US)
Launch site: AIR FORCE EASTERN TEST RANGE (AFETR)
aabbcc
Your satellite tracking list
Your tracking list is empty




NASA's NSSDC Master Catalog

Two Line Element Set (TLE):
1 50814U 22001M   22028.50001157  .00010546  00000-0  79369-4 0  9990
2 50814  53.2147  92.1390 0001561  42.3306 227.7147 15.73229085  3710
Source of the keplerian elements: AFSPC